Location: Eckley Miners' Village
(40.9930°N, 75.8630°W)
Time: 10:15:57
(UTC-04:00)

Vanguard 1 Rocket - Pass Details

Date: 12 March 2026
Orbit: 654 x 4213 km, 34.3° (Epoch: 11 April)

Event Time Altitude Azimuth Distance (km) Brightness Sun altitude
Rises 14:56:09 0° 261° (W) 3,655 11.0 40.1°
Reaches altitude 10° 14:59:26 10° 240° (WSW) 3,081 11.1 39.7°
Maximum altitude 15:04:06 17° 202° (SSW) 3,138 11.5 39.2°
Drops below altitude 10° 15:10:32 10° 167° (SSE) 4,485 11.5 38.4°
Sets 15:17:08 0° 151° (SSE) 6,283 11.9 37.6°
